FW3160 Weather Reports


time (UTC)temp
C
wind
direction
speed
KPH
gust
KPH
rain 1hr
cm
rain 24hr
cm
rain mn
cm
humidity
%
barometer
mb
20260509043026 28 211 1.6 4.8 0.00 0.00 0.00 79 1008.2
20260509041525 28 212 3.2 8.0 0.00 0.00 0.00 81 1008.3
20260509040035 27 273 3.2 6.4 0.00 0.00 0.00 81 1008.5
20260509034524 28 294 1.6 6.4 0.00 0.00 0.00 82 1008.7
20260509033024 28 295 0.0 6.4 0.00 0.00 0.00 82 1009.0
20260509031528 28 295 0.0 4.8 0.00 0.00 0.00 82 1009.3
20260509030019 27 294 0.0 11.3 0.00 0.00 0.00 82 1009.5
20260509024516 27 231 0.0 4.8 0.00 0.00 0.00 84 1009.9
20260509023014 26 228 0.0 3.2 0.00 0.00 0.00 86 1009.9
20260509021516 26 228 0.0 4.8 0.00 0.00 0.00 86 1010.1
20260509020013 25 227 0.0 3.2 0.00 0.00 0.00 87 1010.1
20260509014530 25 227 0.0 0.0 0.00 0.00 0.00 87 1010.2
20260509013009 24 227 0.0 3.2 0.00 0.00 0.00 89 1010.1
20260509011508 24 227 0.0 1.6 0.00 0.00 0.00 90 1009.8
20260509010005 24 226 0.0 3.2 0.00 0.00 0.00 90 1009.7
20260509004503 24 226 0.0 4.8 0.00 0.00 0.00 90 1009.6
20260509003001 23 226 1.6 4.8 0.00 0.00 0.00 90 1009.4
20260509001558 23 227 0.0 3.2 0.00 0.00 0.00 92 1009.2
20260509000057 23 226 0.0 1.6 0.00 0.00 0.00 92 1008.9
20260508234557 23 226 0.0 0.0 0.00 0.00 0.00 92 1008.6
20260508233055 23 226 0.0 0.0 0.00 0.00 0.00 92 1008.3
20260508231556 23 226 0.0 0.0 0.00 0.00 0.00 92 1008.1
20260508230122 23 226 0.0 0.0 0.00 0.00 0.00 92 1007.9
20260508224551 23 226 0.0 0.0 0.00 0.00 0.00 92 1007.7
20260508223047 23 226 0.0 0.0 0.00 0.00 0.00 91 1007.6
20260508221546 23 226 0.0 0.0 0.00 0.00 0.00 91 1007.6
20260508220111 23 227 0.0 0.0 0.00 0.00 0.00 90 1007.5
20260508214543 23 226 0.0 0.0 0.00 0.00 0.00 90 1007.4
20260508213041 23 227 0.0 1.6 0.00 0.00 0.00 90 1007.3
20260508211546 23 226 0.0 0.0 0.00 0.00 0.00 88 1007.3
20260508210039 24 226 0.0 0.0 0.00 0.00 0.00 88 1007.1
20260508204542 24 226 0.0 3.2 0.00 0.00 0.00 87 1006.9
20260508203038 23 226 0.0 3.2 0.00 0.00 0.00 88 1007.0
20260508201537 23 226 0.0 1.6 0.00 0.00 0.00 88 1006.8
20260508200037 24 226 0.0 0.0 0.00 0.00 0.00 89 1006.8
20260508194536 24 226 0.0 0.0 0.00 0.00 0.00 89 1006.8
20260508193034 24 226 0.0 0.0 0.00 0.00 0.00 88 1006.8
20260508191531 24 226 0.0 1.6 0.00 0.00 0.00 88 1006.9
20260508190034 24 226 0.0 0.0 0.00 0.00 0.00 88 1007.2
20260508184539 24 226 0.0 3.2 0.00 0.00 0.00 88 1007.3
20260508183027 24 226 0.0 3.2 0.00 0.00 0.00 87 1007.2
20260508181535 25 226 1.6 4.8 0.00 0.00 0.00 86 1007.2
20260508180022 25 226 1.6 6.4 0.00 0.00 0.00 86 1007.5
20260508174530 25 204 3.2 14.5 0.00 0.00 0.00 86 1007.5
20260508173016 25 210 6.4 12.9 0.00 0.00 0.00 84 1007.6
20260508171514 26 206 8.0 16.1 0.00 0.00 0.00 82 1007.8
20260508170011 26 195 6.4 16.1 0.00 0.00 0.00 81 1007.9
20260508164510 26 199 11.3 19.3 0.00 0.03 0.00 81 1008.0
20260508163012 26 206 6.4 16.1 0.00 0.03 0.00 82 1008.0
20260508161509 26 45 0.0 3.2 0.00 0.03 0.00 85 1007.9
20260508160008 26 45 0.0 3.2 0.00 0.03 0.00 86 1007.7
20260508154508 26 45 0.0 0.0 0.00 0.08 0.00 86 1007.8
20260508153006 26 46 0.0 0.0 0.00 0.08 0.00 86 1007.5
20260508151507 26 45 0.0 1.6 0.00 0.08 0.00 86 1007.1
20260508150006 26 45 0.0 3.2 0.00 0.48 0.00 86 1006.8
20260508144506 26 45 0.0 0.0 0.00 0.48 0.00 83 1006.6
20260508143006 27 45 0.0 0.0 0.00 0.48 0.00 81 1006.1
20260508141505 27 45 0.0 1.6 0.00 0.48 0.00 81 1005.6
20260508140006 27 45 0.0 4.8 0.00 0.64 0.00 79 1005.5
20260508134509 27 47 3.2 9.7 0.00 0.64 0.00 78 1005.1
20260508133004 27 67 1.6 9.7 0.00 0.64 0.00 78 1004.9
20260508131504 27 67 0.0 3.2 0.00 0.64 0.00 78 1004.8
20260508130005 28 67 0.0 4.8 0.00 0.64 0.00 75 1004.4
20260508124508 28 67 0.0 3.2 0.00 0.64 0.00 72 1004.0
20260508123003 29 67 1.6 6.4 0.00 0.64 0.00 70 1003.8
20260508121502 29 35 1.6 4.8 0.00 0.64 0.00 70 1003.9
20260508120002 30 34 4.8 16.1 0.00 0.64 0.00 69 1003.7
20260508114501 30 37 3.2 14.5 0.00 0.64 0.00 69 1003.6
20260508113001 30 62 3.2 8.0 0.00 0.64 0.00 70 1003.4
20260508111600 31 180 0.0 3.2 0.00 0.64 0.00 73 1002.9
20260508110100 31 180 0.0 4.8 0.00 0.64 0.00 69 1002.5
20260508104606 31 183 3.2 4.8 0.00 0.64 0.00 68 1002.4
20260508103059 32 184 0.0 6.4 0.00 0.64 0.00 67 1002.1
20260508101600 32 171 3.2 11.3 0.00 0.64 0.00 66 1002.0
20260508100059 32 100 3.2 12.9 0.00 0.64 0.00 67 1001.9
20260508094615 32 180 4.8 12.9 0.00 0.64 0.00 67 1001.9
20260508093057 33 191 8.0 11.3 0.00 0.64 0.00 67 1001.8
20260508091554 32 218 4.8 9.7 0.00 0.64 0.00 68 1001.9
20260508090055 32 206 1.6 14.5 0.00 0.64 0.00 67 1002.0
20260508084551 32 201 4.8 11.3 0.00 0.64 0.00 69 1002.1
20260508083048 32 189 0.0 8.0 0.00 0.64 0.00 67 1002.5
20260508081608 32 230 4.8 8.0 0.00 0.64 0.00 71 1002.7
20260508080044 32 222 4.8 9.7 0.00 0.64 0.00 70 1003.2
20260508074540 32 287 4.8 8.0 0.00 0.64 0.00 71 1003.5
20260508073043 31 264 0.0 9.7 0.00 0.64 0.00 72 1003.6
20260508071541 31 262 3.2 9.7 0.00 0.64 0.00 75 1003.9
20260508070030 31 262 1.6 4.8 0.00 0.64 0.00 72 1004.4
20260508064530 30 262 1.6 6.4 0.00 0.64 0.00 77 1004.8
20260508063032 30 262 4.8 9.7 0.00 0.64 0.00 76 1005.1
20260508061518 30 230 4.8 9.7 0.00 0.64 0.00 78 1005.7
20260508060015 28 256 1.6 9.7 0.00 0.64 0.00 82 1006.0
20260508054515 28 236 1.6 6.4 0.00 0.64 0.00 81 1006.5
20260508053011 28 231 3.2 8.0 0.00 0.64 0.00 82 1006.8
20260508051607 27 197 1.6 4.8 0.00 0.64 0.00 83 1007.1
20260508050007 27 196 1.6 4.8 0.00 0.64 0.00 84 1007.5
20260508044504 27 196 3.2 6.4 0.00 0.64 0.00 85 1007.9